Weather History for Robinson, IL

Change the Weather History Date:

Monday, July 15, 2013

  Actual Average (KLWV) Record (KLWV)
Temperature  
Mean Temperature 82 °F 78 °F  
Max Temperature 90 °F 89 °F 94 °F (2010)
Min Temperature 73 °F 68 °F 57 °F (2001)
Degree Days  
Heating Degree Days 0 0  
Month to date heating degree days 0  
Since 1 June heating degree days 7  
Since 1 July heating degree days 0  
Cooling Degree Days 16 13  
Month to date cooling degree days 195  
Year to date cooling degree days 624  
Since 1 June cooling degree days 485  
Growing Degree Days 32 (Base 50)    
Moisture  
Dew Point 73 °F    
Average Humidity 77    
Maximum Humidity 94    
Minimum Humidity 59    
Precipitation  
Precipitation 0.00 in 0.17 in 2.32 in (1992)
Month to date precipitation 2.11  
Year to date precipitation 23.65  
Sea Level Pressure  
Sea Level Pressure 30.24 in    
Wind  
Wind Speed 5 mph (ESE)    
Max Wind Speed 13 mph    
Max Gust Speed 16 mph    
Visibility 10 miles    
Events      
T = Trace of Precipitation, MM = Missing Value Source: NWS Daily Summary

Daily Weather History Graph

Daily Weather History Graph

Search for Another Location

Airport:

Trip Planner

Search our weather history database for the weather conditions in past years. The results will help you decide how hot, cold, wet, or windy it might be!

Date:

Astronomy

Jul. 15, 2013 Rise Set
Actual Time 5:37 AM CDT 8:15 PM CDT
Civil Twilight 5:06 AM CDT 8:46 PM CDT
Nautical Twilight 4:27 AM CDT 9:25 PM CDT
Astronomical Twilight 3:43 AM CDT 10:08 PM CDT
Moon 12:52 PM CDT (7/15) No Moon Set
Length of Visible Light 15h 40m
Length of Day
14h 37m
Waxing Crescent, 45% of the Moon is Illuminated
Jul 15
Waxing Crescent
Jul 15
First Quarter
Jul 22
Full
Jul 29
Last Quarter
Aug 6
New

Hourly Weather History & Observations

Time (CDT) Temp. Heat Index Dew Point Humidity Pressure Visibility Wind Dir Wind Speed Gust Speed Precip Events Conditions
12:15 AM 78.6 °F - 73.6 °F 84% 30.20 in 10.0 mi East 3.5 mph - N/A   Overcast
12:35 AM 78.6 °F - 73.4 °F 84% 30.20 in 10.0 mi East 6.9 mph - N/A   Overcast
12:55 AM 77.9 °F - 73.2 °F 85% 30.20 in 10.0 mi ESE 4.6 mph - N/A   Mostly Cloudy
1:15 AM 77.0 °F - 72.9 °F 87% 30.19 in 10.0 mi ESE 4.6 mph - N/A   Clear
1:35 AM 76.5 °F - 72.9 °F 89% 30.19 in 10.0 mi East 3.5 mph - N/A   Clear
1:55 AM 76.5 °F - 72.7 °F 88% 30.19 in 10.0 mi ENE 3.5 mph - N/A   Clear
2:15 AM 75.7 °F - 72.5 °F 90% 30.20 in 10.0 mi ENE 3.5 mph - N/A   Clear
2:35 AM 74.8 °F - 72.0 °F 91% 30.20 in 10.0 mi NE 3.5 mph - N/A   Clear
2:55 AM 75.4 °F - 72.7 °F 91% 30.20 in 10.0 mi East 4.6 mph - N/A   Clear
3:15 AM 75.6 °F - 72.9 °F 91% 30.20 in 10.0 mi East 4.6 mph - N/A   Clear
3:35 AM 75.2 °F - 72.7 °F 92% 30.20 in 10.0 mi East 3.5 mph - N/A   Clear
3:55 AM 75.2 °F - 72.9 °F 92% 30.19 in 10.0 mi East 5.8 mph - N/A   Clear
4:15 AM 75.2 °F - 72.7 °F 92% 30.20 in 10.0 mi East 3.5 mph - N/A   Clear
4:35 AM 74.5 °F - 72.5 °F 94% 30.21 in 10.0 mi ESE 3.5 mph - N/A   Clear
4:55 AM 74.7 °F - 72.5 °F 93% 30.21 in 10.0 mi ESE 5.8 mph - N/A   Clear
5:15 AM 74.3 °F - 72.5 °F 94% 30.22 in 10.0 mi ESE 5.8 mph - N/A   Clear
5:35 AM 73.8 °F - 71.8 °F 93% 30.22 in 10.0 mi East 3.5 mph - N/A   Clear
5:55 AM 73.9 °F - 72.0 °F 93% 30.23 in 10.0 mi ESE 3.5 mph - N/A   Clear
6:15 AM 74.5 °F - 72.5 °F 94% 30.23 in 10.0 mi ESE 3.5 mph - N/A   Clear
6:35 AM 76.1 °F - 73.4 °F 91% 30.24 in 10.0 mi Calm Calm - N/A   Clear
6:55 AM 77.5 °F - 73.4 °F 87% 30.25 in 10.0 mi SE 4.6 mph - N/A   Clear
7:15 AM 78.4 °F - 73.4 °F 84% 30.25 in 10.0 mi ESE 5.8 mph - N/A   Clear
7:35 AM 79.9 °F - 73.6 °F 81% 30.26 in 10.0 mi ESE 5.8 mph - N/A   Clear
8:15 AM 81.3 °F 86.3 °F 73.2 °F 76% 30.27 in 10.0 mi ESE 6.9 mph - N/A   Clear
8:35 AM 82.4 °F 88.2 °F 73.4 °F 74% 30.27 in 10.0 mi SE 8.1 mph - N/A   Clear
8:55 AM 83.1 °F 89.2 °F 73.2 °F 72% 30.27 in 10.0 mi SE 8.1 mph - N/A   Scattered Clouds
9:15 AM 82.9 °F 88.5 °F 72.9 °F 71% 30.27 in 10.0 mi SSE 11.5 mph - N/A   Scattered Clouds
9:35 AM 84.4 °F 91.3 °F 73.6 °F 70% 30.27 in 10.0 mi SE 12.7 mph 16.1 mph N/A   Scattered Clouds
9:55 AM 84.2 °F 91.2 °F 73.8 °F 71% 30.28 in 10.0 mi SE 6.9 mph - N/A   Mostly Cloudy
10:15 AM 82.9 °F 88.5 °F 72.9 °F 71% 30.29 in 10.0 mi SSE 8.1 mph - N/A   Overcast
10:35 AM 84.2 °F 91.2 °F 73.8 °F 71% 30.29 in 10.0 mi SSE 6.9 mph - N/A   Overcast
10:55 AM 84.2 °F 90.9 °F 73.6 °F 70% 30.29 in 10.0 mi SE 6.9 mph - N/A   Overcast
11:15 AM 85.1 °F 92.9 °F 74.1 °F 70% 30.29 in 10.0 mi South 8.1 mph - N/A   Overcast
11:35 AM 84.9 °F 92.1 °F 73.6 °F 69% 30.29 in 10.0 mi SSE 5.8 mph - N/A   Overcast
11:55 AM 84.9 °F 92.5 °F 74.1 °F 70% 30.29 in 10.0 mi SE 4.6 mph - N/A   Overcast
12:15 PM 85.6 °F 93.8 °F 74.3 °F 69% 30.29 in 10.0 mi SE 5.8 mph - N/A   Overcast
12:35 PM 84.4 °F 91.7 °F 74.1 °F 71% 30.28 in 10.0 mi South 4.6 mph - N/A   Overcast
1:15 PM 86.9 °F 95.0 °F 73.8 °F 65% 30.27 in 10.0 mi SE 4.6 mph - N/A   Mostly Cloudy
1:35 PM 86.9 °F 95.4 °F 74.3 °F 66% 30.27 in 10.0 mi SE 5.8 mph - N/A   Overcast
1:55 PM 88.5 °F 97.8 °F 74.3 °F 63% 30.27 in 10.0 mi East 4.6 mph - N/A   Mostly Cloudy
2:15 PM 88.3 °F 97.4 °F 74.1 °F 63% 30.26 in 10.0 mi East 4.6 mph - N/A   Mostly Cloudy
2:35 PM 89.1 °F 99.1 °F 75.2 °F 63% 30.26 in 10.0 mi ESE 8.1 mph - N/A   Mostly Cloudy
2:55 PM 88.7 °F 97.7 °F 73.9 °F 62% 30.25 in 10.0 mi East 8.1 mph - N/A   Overcast
3:15 PM 90.0 °F 100.2 °F 74.7 °F 61% 30.24 in 10.0 mi ESE 8.1 mph - N/A   Mostly Cloudy
3:35 PM 88.0 °F 96.5 °F 74.1 °F 63% 30.24 in 10.0 mi ESE 8.1 mph - N/A   Scattered Clouds
3:55 PM 88.2 °F 96.9 °F 74.1 °F 63% 30.24 in 10.0 mi East 9.2 mph - N/A   Scattered Clouds
4:15 PM 90.0 °F 99.0 °F 73.8 °F 59% 30.23 in 10.0 mi East 9.2 mph - N/A   Scattered Clouds
4:35 PM 89.6 °F 98.7 °F 73.9 °F 60% 30.23 in 10.0 mi ESE 8.1 mph - N/A   Scattered Clouds
4:55 PM 89.8 °F 98.6 °F 73.9 °F 59% 30.23 in 10.0 mi East 9.2 mph - N/A   Scattered Clouds
5:15 PM 89.6 °F 98.2 °F 73.6 °F 59% 30.22 in 10.0 mi East 10.4 mph - N/A   Scattered Clouds
5:35 PM 89.1 °F 97.0 °F 73.2 °F 59% 30.22 in 10.0 mi East 11.5 mph - N/A   Scattered Clouds
5:55 PM 88.7 °F 96.2 °F 72.7 °F 59% 30.22 in 10.0 mi East 10.4 mph - N/A   Clear
6:15 PM 88.7 °F 96.2 °F 72.9 °F 59% 30.22 in 10.0 mi East 8.1 mph - N/A   Clear
6:35 PM 88.2 °F 96.4 °F 73.6 °F 62% 30.22 in 10.0 mi East 5.8 mph - N/A   Clear
6:55 PM 87.4 °F 94.8 °F 72.9 °F 62% 30.22 in 10.0 mi ESE 6.9 mph - N/A   Clear
7:15 PM 86.5 °F 93.8 °F 73.2 °F 64% 30.22 in 10.0 mi ESE 5.8 mph - N/A   Clear
7:35 PM 85.1 °F 92.2 °F 73.6 °F 68% 30.23 in 10.0 mi ESE 5.8 mph - N/A   Clear
7:55 PM 83.7 °F 90.1 °F 73.4 °F 71% 30.23 in 10.0 mi ESE 5.8 mph - N/A   Clear
8:15 PM 81.5 °F 86.5 °F 73.0 °F 75% 30.24 in 10.0 mi ESE 4.6 mph - N/A   Clear
8:35 PM 80.4 °F 85.0 °F 73.2 °F 79% 30.24 in 10.0 mi East 4.6 mph - N/A   Clear
8:55 PM 79.2 °F - 72.5 °F 80% 30.25 in 10.0 mi ESE 6.9 mph - N/A   Clear
9:15 PM 78.6 °F - 72.7 °F 82% 30.26 in 10.0 mi ESE 4.6 mph - N/A   Clear
9:35 PM 77.7 °F - 72.5 °F 84% 30.26 in 10.0 mi ESE 5.8 mph - N/A   Clear
10:15 PM 76.3 °F - 72.0 °F 86% 30.27 in 10.0 mi East 3.5 mph - N/A   Clear
10:35 PM 75.6 °F - 72.0 °F 89% 30.27 in 10.0 mi Calm Calm - N/A   Clear
10:55 PM 75.9 °F - 72.0 °F 87% 30.28 in 10.0 mi Calm Calm - N/A   Clear
11:15 PM 74.3 °F - 71.8 °F 92% 30.29 in 10.0 mi Calm Calm - N/A   Clear
11:35 PM 74.5 °F - 71.6 °F 91% 30.29 in 10.0 mi SE 4.6 mph - N/A   Clear
11:55 PM 73.8 °F - 71.2 °F 92% 30.29 in 10.0 mi Calm Calm - N/A   Clear